www.pogodaiklimat.ru

Погода и климат >> Архив погоды >> Оман >> Ibra


ПОГОДА в Ibra

  • Прогноз погоды в Ibra
  • Монитор погоды в Ibra
  • Климат города

АРХИВ ПОГОДЫ в Ibra

Время (UTC), дата Ветер
(напр.,м/с)
 
Видим.   Явления Облачность Т
(С)
Тd
(С)
f
(%)
Тe
(С)
Тes
(С)
Комфортность P
(гПа)
Po
(гПа)
Тmin
(С)
Tmax
(С)
R
(мм)
R24
(мм)
S
(см)
00 9.12 СЗ 2 н/о н/о +12.3 +3.1 53 +12 +12 1015.0 956.5
06 9.12 ЮВ 2 н/о н/о +20.8 +5.2 36 +22 +22 комфорт 1015.2 958.3 +11.7
12 9.12 Ю 2 9000 м мгла 1/0
[Ci fib]
+25.5 +6.7 30 +25 +27 комфорт 1011.4 954.1
18 9.12 С 3 н/о н/о +20.7 +11.2 54 +23 +23 комфорт 1013.8 957.0 +26.1
00 10.12 СЗ 3 н/о н/о +15.1 +9.8 71 +15 +15 1014.2 956.4
03 10.12 СЗ 3 н/о н/о +15.1 +9.8 71 +15 +15 1014.2 956.4
06 10.12 С 5 н/о н/о +21.3 +6.8 39 +22 +22 комфорт 1015.8 959.0 +13.7
09 10.12 С 5 н/о н/о +21.3 +6.8 39 +22 +22 комфорт 1015.8 959.0 +13.7
12 10.12 СЗ 6 н/о н/о +24.3 +4.1 27 +24 +24 комфорт 1012.1 956.0
18 10.12 З 4 н/о н/о +17.4 -0.1 31 +17 +17 1016.5 958.9 +25.0
21 10.12 З 4 н/о н/о +17.4 -0.1 31 +17 +17 1016.5 958.9 +25.0
00 11.12 СЗ 2 н/о н/о +13.0 -6.1 26 +13 +13 1016.4 957.9
03 11.12 СЗ 2 н/о н/о +13.0 -6.1 26 +13 +13 1016.4 957.9
06 11.12 С 2 10 км ясно +21.5 -6.2 15 +20 +28 1019.4 960.7 +9.7
12 11.12 СЗ 6 н/о н/о +25.9 -11.1 8 +23 +23 комфорт 1012.6 956.7
18 11.12 штиль 0 н/о н/о +19.5 -5.3 18 +19 +19 1015.9 958.6 +26.6
00 12.12 СЗ 2 н/о н/о +12.1 +5.1 62 +11 +11 1015.4 956.8
06 12.12 В 1 9000 м мгла ясно +21.2 +7.1 40 +22 +31 комфорт 1016.7 958.3 +11.2
09 12.12 Ю 1 10 км ясно +26.0 +2.7 22 +25 +36 комфорт 1012.9 955.5
12 12.12 Ю 3 н/о н/о +27.4 -1.6 15 +25 +25 комфорт 1009.4 953.9
15 12.12 ЮВ 4 10 км ясно +23.5 0.0 21 +22 +22 комфорт 1013.8 955.9
18 12.12 штиль 0 10 км ясно +18.6 +5.5 42 +19 +19 1016.6 957.6 +27.6
21 12.12 СЗ 2 н/о н/о +15.5 +5.3 51 +16 +16 1014.7 956.8
00 13.12 СЗ 2 н/о н/о +14.4 +6.0 57 +14 +14 1014.6 956.6
03 13.12 С 1 н/о н/о +14.6 +6.4 58 +16 +16 1015.9 957.8
06 13.12 СВ 3 9000 м мгла ясно +21.1 +7.7 42 +22 +29 комфорт 1017.4 958.9 +13.1
09 13.12 С 3 н/о н/о +23.6 +6.5 33 +24 +24 комфорт 1013.0 956.8
12 13.12 З 3 н/о н/о +24.7 +4.8 28 +24 +24 комфорт 1011.4 955.4
15 13.12 В 2 10 км 3/3 750 м
[Sc diur, vesp]
+21.8 +6.1 36 +22 +22 комфорт 1014.6 956.4
18 13.12 штиль 0 н/о н/о +18.8 +9.1 53 +19 +19 1014.9 957.7 +25.3
21 13.12 штиль 0 н/о н/о +16.6 +8.9 60 +17 +17 1015.3 957.6
00 14.12 СЗ 2 н/о н/о +16.2 +6.7 53 +17 +17 1014.8 957.1
03 14.12 СЗ 2 н/о н/о +15.6 +9.3 66 +16 +16 1016.4 958.5
06 14.12 З 2 8000 м мгла 6/5 750 м
[Sc diur, vesp Ac trans]
+20.4 +8.4 46 +22 +25 комфорт 1019.3 960.6 +15.3
12 14.12 ЮВ 3 9000 м мгла 8/6 750 м
[Sc diur, vesp Ac trans Ci fib]
+22.8 +6.6 35 +23 +24 комфорт 1014.9 956.9
18 14.12 Ю 1 9000 м мгла 4/4 750 м
[Sc Ac trans]
+17.8 +7.0 49 +19 +19 1018.3 959.1 +23.9
00 15.12 СЗ 2 10 км ясно +13.5 +6.1 61 +13 +13 1018.1 958.0
06 15.12 З 2 н/о н/о +20.3 +7.1 42 +22 +22 комфорт 1017.9 960.8 +12.9
12 15.12 В 3 н/о н/о +23.9 +4.6 29 +24 +24 комфорт 1014.0 957.7
18 15.12 штиль 0 н/о н/о +17.0 +8.4 57 +17 +17 1018.7 960.9 +25.0

 

Местоположение метеостанции Ibra (Оман): широта 22.73 долгота 58.50 высота над уровнем моря 469 м.

В архиве по умолчанию представлена погода в Ibra за последнюю неделю. Архивные данные за месяц целиком и за предыдущие месяцы, начиная с января 2011 года, Вы можете получить, выбрав интересующий диапазон дат из раскрывающегося списка и нажав кнопку "Ввод!".

Внимание! Время в таблицах - всемирное. Для получения местного времени необходимо прибавить поправку, которая в Ibra равна 4 ч.

Смотрите также архив погоды в соседних городах и на ближайших метеорологических станциях:

Погода в Al Mudhaibi (Оман) (45 км)
Погода в Bidiya (Оман) (47 км)
Погода в Al Amerat (Оман) (86 км)
Погода в Samail (Оман) (86 км)
Погода в Qalhat (Оман) (93 км)
Погода в Saiq (Оман) (97 км)
Погода в Seeb (Оман) (97 км)
Погода в Mina Sultan Qaboos (Оман) (99 км)
Погода в Nizwa (Оман) (100 км)
Погода в Sur (Оман) (102 км)

Пояснения к столбцам:

Ветер - указаны скорость ветра в м/с - средняя за 10 мин, порывы в срок и между сроками (в фигурных скобках) и направление, откуда дует ветер: С - северный, СВ - северо-восточный, В - восточный, ЮВ - юго-восточный, Ю - южный, ЮЗ - юго-западный, З - западный, СЗ - северо-западный.
Видимость - горизонтальная дальность видимости в метрах или километрах. При видимости от 1 до 10 км при отсутствии осадков обычно наблюдается дымка, при ухудшении видимости до 1 км и менее - туман. В сухую погоду видимость может ухудшаться дымом, пылью или мглою.
Явления - указаны атмосферные явления, наблюдавшиеся в срок или в последний час перед сроком; фигурными скобками обозначены явления, наблюдавшиеся между сроками (за 1-3 часа до срока); квадратными скобками обозначены град или гололедные отложения с указанием их диаметра в мм.
Облачность - указаны через наклонную черту общая и нижняя облачность в баллах и высота нижней границы облаков в метрах; квадратными скобками обозначены формы облаков: Ci - перистые, Cs - перисто-слоистые, Cc - перисто-кучевые, Ac - высококучевые, As - высокослоистые, Sc - слоисто-кучевые, Ns - слоисто-дождевые, Cu - кучевые, Cb - кучево-дождевые. Подробнее классификацию облаков см. в Атласе облаков (PDF).
T - Температура воздуха - температура, измеренная на высоте 2 м над землей.
Td - Температура точки росы - температура, при понижении до которой содержащийся в воздухе водяной пар достигнет насыщения.
f - Относительная влажность воздуха - влажноcть воздуха, измеренная на высоте 2 м над землей.
Te - Эффективная температура - температура, которую ощущает одетый по сезону человек в тени. Характеристика душности погоды. При расчете учитывается влияние влажности воздуха и скорости ветра на теплоощущения человека.
Tes - Эффективная температура на солнце - температура, которую ощущает человек, с поправкой на солнечный нагрев. Характеристика знойности погоды. Зависит от высоты солнца над горизонтом, облачности и скорости ветра. Ночью, в пасмурную погоду, а также при ветре 12 м/с и более поправка равна нулю.
P - Атмосферное давление - приведенное к уровню моря атмосферное давление.
Po - Атмосферное давление - измеренное на уровне метеостанции атмосферное давление.
Tmin - Минимальная температура - минимум температуры воздуха на высоте 2 м над землей.
Tmax - Максимальная температура - максимум температуры воздуха на высоте 2 м над землей.
R - Количество осадков - Количество выпавших осадков за период времени, мм. При наведении курсора мыши на число - период времени, за который выпало указанное количество осадков.
R24 - Количество осадков - Количество выпавших осадков за 24 часа, мм.
S - Снежный покров - Высота снежного покрова, см. При наведении курсора мыши на число - состояние снежного покрова и степень покрытия местности в баллах.